TimePDT,TemperatureF,Dew PointF,Humidity,Sea Level PressureIn,VisibilityMPH,Wind Direction,Wind SpeedMPH,Gust SpeedMPH,PrecipitationIn,Events,Conditions,WindDirDegrees,DateUTC
12:55 AM,71.1,54.0,55,29.86,10.0,NW,6.9,-,N/A,,Partly Cloudy,320,2013-09-03 07:55:00
1:55 AM,72.0,54.0,53,29.86,10.0,NNW,9.2,-,N/A,,Mostly Cloudy,330,2013-09-03 08:55:00
2:55 AM,70.0,54.0,57,29.85,10.0,NNW,10.4,-,N/A,,Clear,340,2013-09-03 09:55:00
3:55 AM,68.0,55.0,63,29.86,10.0,WNW,5.8,-,N/A,,Partly Cloudy,290,2013-09-03 10:55:00
4:55 AM,68.0,54.0,61,29.86,10.0,NNW,8.1,-,N/A,,Partly Cloudy,340,2013-09-03 11:55:00
5:55 AM,66.0,55.0,68,29.87,10.0,WSW,3.5,-,N/A,,Mostly Cloudy,240,2013-09-03 12:55:00
6:55 AM,66.0,55.9,70,29.88,10.0,WNW,8.1,-,N/A,,Mostly Cloudy,290,2013-09-03 13:55:00
7:55 AM,68.0,55.0,63,29.89,10.0,West,9.2,-,N/A,,Mostly Cloudy,280,2013-09-03 14:55:00
8:55 AM,71.1,55.9,59,29.89,10.0,WNW,9.2,-,N/A,,Overcast,300,2013-09-03 15:55:00
9:55 AM,75.0,55.0,50,29.89,10.0,Variable,5.8,-,N/A,,Partly Cloudy,0,2013-09-03 16:55:00
10:55 AM,77.0,55.9,48,29.88,10.0,WNW,5.8,-,N/A,,Clear,290,2013-09-03 17:55:00
11:55 AM,80.1,55.0,42,29.87,10.0,Calm,Calm,-,N/A,,Clear,0,2013-09-03 18:55:00
12:55 PM,82.9,54.0,37,29.86,10.0,SE,4.6,-,N/A,,Clear,130,2013-09-03 19:55:00
1:55 PM,84.9,54.0,34,29.85,10.0,East,9.2,-,N/A,,Clear,100,2013-09-03 20:55:00
2:55 PM,86.0,55.0,35,29.85,10.0,SE,13.8,19.6,N/A,,Clear,140,2013-09-03 21:55:00
3:55 PM,86.0,54.0,33,29.83,10.0,ESE,11.5,18.4,N/A,,Clear,120,2013-09-03 22:55:00
4:55 PM,84.9,53.1,33,29.83,10.0,ESE,10.4,-,N/A,,Clear,120,2013-09-03 23:55:00
5:55 PM,81.0,55.9,42,29.85,10.0,NNW,12.7,-,N/A,,Clear,330,2013-09-04 00:55:00
6:55 PM,79.0,55.0,44,29.87,10.0,NNW,12.7,-,N/A,,Clear,330,2013-09-04 01:55:00
7:55 PM,75.9,54.0,46,29.89,10.0,NNW,9.2,-,N/A,,Clear,330,2013-09-04 02:55:00
8:55 PM,75.0,54.0,48,29.92,10.0,NNW,9.2,-,N/A,,Clear,330,2013-09-04 03:55:00
9:55 PM,73.0,52.0,48,29.92,10.0,NNW,11.5,-,N/A,,Clear,330,2013-09-04 04:55:00
10:55 PM,71.1,52.0,51,29.93,10.0,NNW,10.4,-,N/A,,Clear,340,2013-09-04 05:55:00
11:55 PM,71.1,52.0,51,29.93,10.0,NNW,9.2,-,N/A,,Clear,330,2013-09-04 06:55:00